Location: ????????
(38.4362°N, 22.8767°E)
Time: 17:38:45
(UTC+00:00)

ISS - Visible Passes

Search period start: 23 June 2024 00:00
Search period end: 03 July 2024 00:00
Orbit: 410 x 425 km, 51.6° (Epoch: 23 June)

Date Brightness Start Highest point End Pass type
(mag) Time Alt. Az. Time Alt. Az. Time Alt. Az.
23 Jun -3.7 01:48:21 23° SW 01:50:14 70° SE 01:53:34 10° NE visible
24 Jun -2.9 01:02:07 36° SE 01:02:14 36° SE 01:05:21 10° ENE visible
25 Jun -1.3 00:15:47 15° E 00:15:47 15° E 00:16:49 10° E visible
25 Jun -2.8 01:48:42 17° W 01:50:51 39° NNW 01:54:01 10° NE visible
26 Jun -3.7 01:02:17 59° W 01:02:41 67° NW 01:06:00 10° NE visible
27 Jun -2.3 00:15:48 34° ENE 00:15:48 34° ENE 00:17:50 10° NE visible
27 Jun -1.5 01:49:08 10° WNW 01:51:34 19° NNW 01:54:01 10° NNE visible
27 Jun -0.7 23:29:14 11° ENE 23:29:14 11° ENE 23:29:29 10° ENE visible
28 Jun -2.0 01:02:08 22° WNW 01:03:12 26° NNW 01:06:06 10° NNE visible
29 Jun -2.3 00:15:29 36° N 00:15:29 36° N 00:18:03 10° NE visible
29 Jun -0.9 01:51:08 10° NW 01:52:21 12° NNW 01:53:35 10° N visible
29 Jun -1.2 23:28:46 20° NE 23:28:46 20° NE 23:29:54 10° NE visible
30 Jun -1.0 01:01:53 10° NW 01:03:49 14° NNW 01:05:47 10° NNE visible
01 Jul -1.5 00:14:52 19° NW 00:15:19 19° NNW 00:17:49 10° NNE visible
01 Jul -1.2 23:28:00 22° N 23:28:00 22° N 23:29:45 10° NNE visible
02 Jul -0.7 22:41:03 14° NE 22:41:03 14° NE 22:41:35 10° NE visible
